Home   Weather   Ulaanbaatar   Past weeks
Flag for Mongolia

Past Weather in Ulaanbaatar, Mongolia — Yesterday and Last 2 Weeks

Now
48 °F

Sunny.


Feels Like: 44 °F
Forecast: 65 / 22 °F
Wind: 10 mph from North

Location: Ulan-Bator

Current Time: May 19, 2019 at 8:39:34 pm

Latest Report: May 19, 2019 at 8:00 pm


Visibility: 10 mi

Pressure: 30.07 "Hg (25.70 "Hg at 1298m altitude)

Humidity: 18%

Dew Point: 7 °F

Location of UlaanbaatarLocation

Past Weather in Ulaanbaatar — Graph

°F

Ulaanbaatar Temperature Yesterday

Maximum temperature yesterday: 46 °F (at 3:00 pm)
Minimum temperature yesterday: 32 °F (at 11:00 pm)
Average temperature yesterday: 40 °F

High & Low Weather Summary for the Past Weeks

 TemperatureHumidityPressure
High70 °F (May 14, 12:30 pm)93% (May 11, 2:00 am)30.57 "Hg (May 11, 2:00 am)
Low10 °F (May 12, 5:30 am)9% (May 6, 1:30 pm)29.30 "Hg (May 15, 4:30 am)
Average43 °F38%29.88 "Hg
* Reported May 4 7:00 pm — May 19 7:30 pm, Ulaanbaatar. Weather by CustomWeather, © 2019

Note: Actual official high and low records may vary slightly from our data, if they occured in-between our weather recording intervals... More about our weather records

Advertising

Ulaanbaatar Weather History for the Previous 24 Hours

Scroll right to see more
 ConditionsComfort  
Time TempWeatherWind HumidityBarometerVisibility
7:30 pm
Sun, May 19
50 °FSunny.13 mph17%30.07 "Hg10 mi
7:00 pm50 °FSunny.17 mph17%30.04 "Hg10 mi
6:30 pm52 °FPassing clouds.17 mph16%30.04 "HgN/A
6:00 pm52 °FPassing clouds.17 mph15%30.04 "HgN/A
5:30 pm52 °FSunny.15 mph15%30.07 "Hg10 mi
5:00 pm52 °FSunny.17 mph15%30.04 "Hg10 mi
4:30 pm52 °FPassing clouds.15 mph15%30.07 "HgN/A
4:00 pm50 °FPassing clouds.20 mph16%30.07 "HgN/A
3:30 pm50 °FPassing clouds.20 mph16%30.07 "HgN/A
3:00 pm50 °FPassing clouds.22 mph17%30.07 "HgN/A
2:30 pm50 °FScattered clouds.24 mph16%30.07 "HgN/A
2:00 pm48 °FScattered clouds.22 mph17%30.07 "HgN/A
1:30 pm48 °FScattered clouds.24 mph17%30.07 "HgN/A
1:00 pm46 °FScattered clouds.20 mph20%30.09 "HgN/A
12:30 pm45 °FScattered clouds.22 mph21%30.09 "HgN/A
12:00 pm45 °FScattered clouds.22 mph23%30.09 "HgN/A
11:30 am41 °FScattered clouds.24 mph24%30.12 "HgN/A
11:00 am41 °FScattered clouds.22 mph26%30.12 "HgN/A
10:30 am41 °FPartly sunny.22 mph28%30.12 "HgN/A
10:00 am41 °FPartly sunny.26 mph28%30.12 "HgN/A
9:30 am39 °FPartly sunny.26 mph30%30.12 "HgN/A
9:00 am39 °FPartly sunny.22 mph30%30.12 "HgN/A
8:30 am37 °FPartly sunny.17 mph33%30.12 "HgN/A
8:00 am36 °FPartly sunny.13 mph35%30.12 "HgN/A
7:30 am34 °FPartly sunny.10 mph38%30.12 "HgN/A
7:00 am30 °FPassing clouds.1 mph51%30.09 "HgN/A
6:30 am27 °FPassing clouds.No wind54%30.09 "HgN/A
6:00 am19 °FClear.1 mph68%30.09 "Hg10 mi
5:30 am16 °FClear.1 mph73%30.09 "Hg10 mi
4:00 am23 °FClear.No wind58%30.07 "Hg10 mi
3:00 am25 °FClear.3 mph59%30.07 "Hg10 mi
2:00 am25 °FClear.3 mph54%30.07 "Hg10 mi
1:00 am28 °FClear.1 mph47%30.07 "Hg10 mi
12:00 am28 °FClear.6 mph47%30.04 "Hg10 mi
11:30 pm
Sat, May 18
32 °FClear.8 mph37%30.07 "Hg10 mi
11:00 pm32 °FClear.8 mph34%30.07 "Hg10 mi
10:30 pm36 °FClear.8 mph30%30.04 "Hg10 mi
10:00 pm37 °FClear.13 mph28%30.04 "Hg10 mi
9:30 pm39 °FClear.15 mph22%30.04 "Hg10 mi
9:00 pm39 °FPassing clouds.20 mph22%30.01 "HgN/A
8:30 pm41 °FScattered clouds.22 mph22%29.98 "HgN/A
8:00 pm43 °FScattered clouds.20 mph19%29.98 "HgN/A
Weather by CustomWeather, © 2019

See weather overview